LUDLAM THOROFARE AT SEA ISLE CITY HADS current weather conditions

sailwx.info

Wind from 127 at 1 knots gusting 4

Air temperature 23.4° C
Dewpoint 19.8° C

Last reported at 2020-Jul-12 11:00 UTC.
Time now 2020-Jul-12 11:56 UTC

Location: N 39°09' W 074°42'.
View on Google Maps.

See reports from other nearby stations

  
Tides and Currents Weather Stations Pressure Air Temp Water Temp Dewpoint Dewpoint Depression Visibility Wind Speed Wind Dir Waves Ship Positions
date/time (UTC)wind fromknots sea level pressurealtimeterstation pressurevisibilityair tempwater tempwave heightnotes
2020-Jul-12 11:00 127 1 gusting 4 23.4
2020-Jul-12 10:54 171 2 gusting 3 23.3
2020-Jul-12 10:48 192 1 gusting 3 23.2
2020-Jul-12 10:42 189 1 gusting 2 23.0
2020-Jul-12 10:36 174 1 gusting 3 23.0
2020-Jul-12 10:30 186 1 gusting 2 23.0
2020-Jul-12 10:24 187 1 gusting 2 22.9
2020-Jul-12 10:18 192 1 gusting 2 23.0
2020-Jul-12 10:12 204 1 gusting 2 22.9
2020-Jul-12 10:06 213 1 gusting 2 22.8
2020-Jul-12 10:00 202 1 gusting 3 22.8
2020-Jul-12 09:54 185 2 gusting 3 22.7
2020-Jul-12 09:48 185 2 gusting 3 22.8
2020-Jul-12 09:42 209 1 gusting 2 22.8
2020-Jul-12 09:36 214 1 gusting 3 22.7
2020-Jul-12 09:30 209 1 gusting 2 22.7
2020-Jul-12 09:24 214 1 gusting 3 22.8
2020-Jul-12 09:18 231 2 gusting 4 22.8
2020-Jul-12 09:12 214 2 gusting 4 22.9
2020-Jul-12 09:06 214 2 gusting 4 23.0
2020-Jul-12 09:00 214 2 gusting 4 22.9
2020-Jul-12 08:54 212 2 gusting 4 22.9
2020-Jul-12 08:48 210 1 gusting 3 22.9
2020-Jul-12 08:42 214 2 gusting 3 22.9
2020-Jul-12 08:36 214 3 gusting 4 22.9
2020-Jul-12 08:30 214 2 gusting 3 22.8
2020-Jul-12 08:24 211 1 gusting 3 22.9
2020-Jul-12 08:18 231 2 gusting 3 23.1
2020-Jul-12 08:12 226 1 gusting 3 23.3
2020-Jul-12 08:06 204 2 gusting 3 23.3
2020-Jul-12 08:00 194 2 gusting 4 23.4
2020-Jul-12 07:54 198 2 gusting 3 23.2
2020-Jul-12 07:48 201 1 gusting 2 23.1
2020-Jul-12 07:42 258 1 gusting 2 23.1
2020-Jul-12 07:36 215 1 gusting 2 23.1
2020-Jul-12 07:30 227 1 gusting 2 23.2
2020-Jul-12 07:24 259 1 gusting 3 23.2
2020-Jul-12 07:18 217 1 gusting 3 23.2
2020-Jul-12 07:12 218 1 gusting 3 23.2
2020-Jul-12 07:06 216 1 gusting 3 23.3
2020-Jul-12 07:00 232 1 gusting 4 23.4
2020-Jul-12 06:54 253 2 gusting 4 23.5
2020-Jul-12 06:48 257 2 gusting 4 23.5
2020-Jul-12 06:42 250 1 gusting 4 23.7
2020-Jul-12 06:36 257 2 gusting 4 23.7
2020-Jul-12 06:30 266 2 gusting 4 23.7
2020-Jul-12 06:24 264 2 gusting 3 23.6
2020-Jul-12 06:18 260 2 gusting 4 23.6
2020-Jul-12 06:12 253 2 gusting 4 23.7
2020-Jul-12 06:06 263 2 gusting 4 23.8
2020-Jul-12 06:00 256 2 gusting 3 23.8
2020-Jul-12 05:54 259 2 gusting 4 23.8
2020-Jul-12 05:48 247 1 gusting 3 24.0
2020-Jul-12 05:42 257 2 gusting 4 24.0
2020-Jul-12 05:36 243 0 gusting 2 24.1
2020-Jul-12 05:30 220 1 gusting 2 24.3
2020-Jul-12 05:24 236 1 gusting 2 24.4
2020-Jul-12 05:18 250 1 gusting 3 24.5
2020-Jul-12 05:12 218 2 gusting 4 24.6
2020-Jul-12 05:06 215 2 gusting 3 24.9
2020-Jul-12 05:00 236 1 gusting 4 25.1
2020-Jul-12 04:54 261 2 gusting 6 25.1
2020-Jul-12 04:48 263 4 gusting 7 25.2
2020-Jul-12 04:42 259 3 gusting 7 25.2
2020-Jul-12 04:36 242 2 gusting 6 25.3
2020-Jul-12 04:30 251 2 gusting 7 25.4
2020-Jul-12 04:24 269 4 gusting 8 25.5
2020-Jul-12 04:18 272 5 gusting 10 25.4
2020-Jul-12 04:12 257 4 gusting 9 25.1
2020-Jul-12 04:06 229 2 gusting 7 25.1
2020-Jul-12 04:00 221 3 gusting 7 25.1
2020-Jul-12 03:54 213 3 gusting 5 25.2
2020-Jul-12 03:48 208 3 gusting 5 25.3
2020-Jul-12 03:42 203 3 gusting 5 25.5
2020-Jul-12 03:36 200 3 gusting 5 25.5
2020-Jul-12 03:30 197 4 gusting 7 25.5
2020-Jul-12 03:24 194 3 gusting 6 25.4
2020-Jul-12 03:18 190 3 gusting 5 25.4
2020-Jul-12 03:12 183 3 gusting 5 25.5
2020-Jul-12 03:06 181 3 gusting 6 25.7
2020-Jul-12 03:00 184 3 gusting 6 25.7
2020-Jul-12 02:54 186 3 gusting 6 25.8
2020-Jul-12 02:48 185 4 gusting 6 25.9
2020-Jul-12 02:42 183 4 gusting 7 26.0
2020-Jul-12 02:36 180 4 gusting 6 26.1
2020-Jul-12 02:30 185 4 gusting 7 26.2
2020-Jul-12 02:24 194 3 gusting 5 26.2
2020-Jul-12 02:18 193 3 gusting 5 26.3
2020-Jul-12 02:12 194 3 gusting 5 26.4
2020-Jul-12 02:06 194 3 gusting 6 26.3
2020-Jul-12 02:00 204 2 gusting 4 26.3
2020-Jul-12 01:54 206 2 gusting 5 26.3
2020-Jul-12 01:48 192 4 gusting 6 26.4
2020-Jul-12 01:42 199 3 gusting 5 26.5
2020-Jul-12 01:36 193 3 gusting 5 26.5
2020-Jul-12 01:30 197 3 gusting 6 26.7
2020-Jul-12 01:24 197 4 gusting 7 26.6
2020-Jul-12 01:18 190 4 gusting 7 26.5
2020-Jul-12 01:12 183 4 gusting 7 26.6
2020-Jul-12 01:06 185 4 gusting 6 26.8
2020-Jul-12 01:00 192 4 gusting 6 26.9
2020-Jul-12 00:54 195 4 gusting 6 27.0
2020-Jul-12 00:48 194 3 gusting 5 27.1
2020-Jul-12 00:42 193 3 gusting 6 27.2
2020-Jul-12 00:36 193 4 gusting 6 27.3
2020-Jul-12 00:30 195 3 gusting 6 27.5
2020-Jul-12 00:24 193 4 gusting 6 27.6
2020-Jul-12 00:18 197 3 gusting 5 27.6
2020-Jul-12 00:12 199 3 gusting 4 27.8
2020-Jul-12 00:06 198 3 gusting 5 27.9
2020-Jul-12 00:00 194 3 gusting 5 27.8
2020-Jul-11 23:54 196 3 gusting 6 27.8
2020-Jul-11 23:48 197 4 gusting 6 27.8
2020-Jul-11 23:42 194 4 gusting 6 27.7
2020-Jul-11 23:36 190 4 gusting 7 27.7
2020-Jul-11 23:30 187 4 gusting 7 27.6
2020-Jul-11 23:24 188 4 gusting 8 27.5
2020-Jul-11 23:18 191 4 gusting 7 27.5
2020-Jul-11 23:12 197 5 gusting 7 27.4
2020-Jul-11 23:06 194 6 gusting 9 27.3
2020-Jul-11 23:00 191 6 gusting 9 27.3
2020-Jul-11 22:54 189 6 gusting 11 27.4
2020-Jul-11 22:48 184 6 gusting 11 27.2
2020-Jul-11 22:42 181 5 gusting 9 27.1
2020-Jul-11 22:36 182 4 gusting 8 27.2
2020-Jul-11 22:30 183 5 gusting 10 27.2
2020-Jul-11 22:24 184 5 gusting 10 27.0
2020-Jul-11 22:18 185 5 gusting 9 27.2
2020-Jul-11 22:12 182 6 gusting 11 27.3
2020-Jul-11 22:06 184 6 gusting 11 27.4
2020-Jul-11 22:00 177 7 gusting 12 27.5
2020-Jul-11 21:54 178 7 gusting 11 27.4
2020-Jul-11 21:48 181 7 gusting 14 27.3
2020-Jul-11 21:42 186 7 gusting 12 27.3
2020-Jul-11 21:36 185 8 gusting 13 27.3
2020-Jul-11 21:30 186 7 gusting 14 27.2
2020-Jul-11 21:24 188 8 gusting 13 27.3
2020-Jul-11 21:18 181 6 gusting 12 27.2
2020-Jul-11 21:12 179 7 gusting 13 27.3
2020-Jul-11 21:06 163 4 gusting 13 27.0
2020-Jul-11 21:00 124 3 gusting 12 26.9
2020-Jul-11 20:54 130 4 gusting 13 26.9
2020-Jul-11 20:48 132 5 gusting 14 26.8
2020-Jul-11 20:42 117 6 gusting 13 26.8
2020-Jul-11 20:36 128 5 gusting 17 26.6
2020-Jul-11 20:30 134 5 gusting 13 26.9
2020-Jul-11 20:24 119 5 gusting 12 27.3
2020-Jul-11 20:18 130 4 gusting 10 27.5
2020-Jul-11 20:12 127 4 gusting 11 27.3
2020-Jul-11 20:06 123 4 gusting 11 26.9
2020-Jul-11 20:00 123 5 gusting 12 26.9
2020-Jul-11 19:54 120 4 gusting 10 27.4
2020-Jul-11 19:48 129 4 gusting 11 27.6
2020-Jul-11 19:42 119 5 gusting 11 27.4
2020-Jul-11 19:36 131 4 gusting 10 27.5
2020-Jul-11 19:30 130 4 gusting 9 27.1
2020-Jul-11 19:24 125 5 gusting 12 26.8
2020-Jul-11 19:18 119 5 gusting 11 26.8
2020-Jul-11 19:12 119 4 gusting 11 26.8
2020-Jul-11 19:06 126 6 gusting 12 26.9
2020-Jul-11 19:00 128 4 gusting 11 27.9
2020-Jul-11 18:54 151 4 gusting 9 27.6
2020-Jul-11 18:48 174 5 gusting 11 27.4
2020-Jul-11 18:42 174 5 gusting 10 27.3
2020-Jul-11 18:36 186 6 gusting 11 27.2
2020-Jul-11 18:30 186 7 gusting 11 27.4
2020-Jul-11 18:24 186 7 gusting 11 27.4
2020-Jul-11 18:18 182 7 gusting 12 27.6
2020-Jul-11 18:12 185 6 gusting 10 27.7
2020-Jul-11 18:06 180 5 gusting 9 27.7
2020-Jul-11 18:00 184 4 gusting 8 27.6
2020-Jul-11 17:54 181 6 gusting 12 27.5
2020-Jul-11 17:48 177 5 gusting 10 27.1
2020-Jul-11 17:42 169 5 gusting 11 26.7
2020-Jul-11 17:36 184 6 gusting 10 26.6
2020-Jul-11 17:30 183 6 gusting 11 26.7
2020-Jul-11 17:24 163 5 gusting 11 26.5
2020-Jul-11 17:18 145 3 gusting 9 26.3
2020-Jul-11 17:12 120 5 gusting 11 26.3
2020-Jul-11 17:06 121 4 gusting 10 26.6
2020-Jul-11 17:00 115 3 gusting 9 26.5
2020-Jul-11 16:54 123 4 gusting 10 26.6
2020-Jul-11 16:48 111 3 gusting 9 26.7
2020-Jul-11 16:42 177 7 gusting 11 26.4
2020-Jul-11 16:36 155 3 gusting 10 26.6
2020-Jul-11 16:30 175 5 gusting 10 26.3
2020-Jul-11 16:24 187 7 gusting 10 25.9
2020-Jul-11 16:18 192 6 gusting 10 25.9
2020-Jul-11 16:12 189 6 gusting 10 25.8
2020-Jul-11 16:06 191 6 gusting 9 26.0
2020-Jul-11 16:00 151 3 gusting 8 26.2
2020-Jul-11 15:54 120 3 gusting 11 25.8
2020-Jul-11 15:48 123 5 gusting 11 25.7
2020-Jul-11 15:42 122 5 gusting 13 25.8
2020-Jul-11 15:36 122 5 gusting 10 26.1
2020-Jul-11 15:30 136 4 gusting 10 26.1
2020-Jul-11 15:24 128 4 gusting 13 26.4
2020-Jul-11 15:18 113 5 gusting 11 26.8
2020-Jul-11 15:12 122 4 gusting 11 27.6
2020-Jul-11 15:06 128 5 gusting 11 28.5
2020-Jul-11 15:00 157 4 gusting 11 28.2
2020-Jul-11 14:54 168 4 gusting 10 27.9
2020-Jul-11 14:48 183 4 gusting 10 27.6
2020-Jul-11 14:42 153 4 gusting 10 27.5
2020-Jul-11 14:36 126 3 gusting 11 26.9
2020-Jul-11 14:30 124 4 gusting 9 26.9
2020-Jul-11 14:24 128 3 gusting 11 26.5
2020-Jul-11 14:18 125 4 gusting 11 26.3
2020-Jul-11 14:12 131 3 gusting 9 26.1
2020-Jul-11 14:06 118 5 gusting 11 26.1
2020-Jul-11 14:00 142 5 gusting 11 26.6
2020-Jul-11 13:54 121 5 gusting 12 26.8
2020-Jul-11 13:48 129 5 gusting 11 26.8
2020-Jul-11 13:42 132 3 gusting 11 26.7
2020-Jul-11 13:36 130 4 gusting 11 26.9
2020-Jul-11 13:30 128 4 gusting 10 27.2
2020-Jul-11 13:24 175 5 gusting 8 27.3
2020-Jul-11 13:18 187 4 gusting 8 27.3
2020-Jul-11 13:12 176 5 gusting 10 27.3
2020-Jul-11 13:06 183 4 gusting 9 27.2
2020-Jul-11 13:00 176 5 gusting 11 26.8
2020-Jul-11 12:54 184 6 gusting 11 26.7
2020-Jul-11 12:48 184 5 gusting 10 26.7
2020-Jul-11 12:42 186 5 gusting 10 26.5
2020-Jul-11 12:36 178 5 gusting 8 26.3
2020-Jul-11 12:30 182 5 gusting 10 26.0
2020-Jul-11 12:24 188 6 gusting 10 25.7
2020-Jul-11 12:18 183 6 gusting 10 25.6
2020-Jul-11 12:12 178 5 gusting 10 25.5
2020-Jul-11 12:06 181 5 gusting 11 25.4
2020-Jul-11 12:00 184 4 gusting 9 25.2
2020-Jul-11 11:54 178 5 gusting 9 25.1
2020-Jul-11 11:48 185 6 gusting 12 24.9
2020-Jul-11 11:42 185 5 gusting 10 24.7
2020-Jul-11 11:36 188 7 gusting 11 24.6
2020-Jul-11 11:30 185 6 gusting 10 24.5
2020-Jul-11 11:24 184 5 gusting 10 24.4
2020-Jul-11 11:18 181 6 gusting 10 24.4
2020-Jul-11 11:12 182 6 gusting 12 24.3
2020-Jul-11 11:06 176 5 gusting 11 24.3
2020-Jul-11 11:00 178 5 gusting 11 24.2
2020-Jul-11 10:54 180 6 gusting 11 24.3
2020-Jul-11 10:48 188 5 gusting 9 24.2
2020-Jul-11 10:42 188 4 gusting 7 24.1
2020-Jul-11 10:36 175 4 gusting 8 24.1
2020-Jul-11 10:30 179 4 gusting 9 24.0
2020-Jul-11 10:24 178 4 gusting 10 24.0
2020-Jul-11 10:18 179 4 gusting 8 23.9
2020-Jul-11 10:12 180 4 gusting 10 23.9
2020-Jul-11 10:06 178 4 gusting 10 23.9
2020-Jul-11 10:00 146 3 gusting 9 23.9
2020-Jul-11 09:54 185 3 gusting 10 23.9
2020-Jul-11 09:48 167 4 gusting 10 23.9
2020-Jul-11 09:42 180 4 gusting 10 23.9
2020-Jul-11 09:36 175 4 gusting 9 24.0
2020-Jul-11 09:30 181 4 gusting 8 24.0
2020-Jul-11 09:24 175 4 gusting 10 24.0
2020-Jul-11 09:18 178 3 gusting 7 24.0
2020-Jul-11 09:12 181 5 gusting 9 24.0
2020-Jul-11 09:06 182 5 gusting 10 24.0
2020-Jul-11 09:00 182 5 gusting 10 24.0
2020-Jul-11 08:54 175 3 gusting 8 24.0
2020-Jul-11 08:48 178 6 gusting 12 24.0
2020-Jul-11 08:42 181 7 gusting 12 24.0
2020-Jul-11 08:36 179 7 gusting 11 24.0
2020-Jul-11 08:30 177 7 gusting 13 24.0
2020-Jul-11 08:24 179 7 gusting 14 24.1
2020-Jul-11 08:18 181 5 gusting 10 24.1
2020-Jul-11 08:12 180 7 gusting 12 24.1
2020-Jul-11 08:06 180 7 gusting 14 24.1
2020-Jul-11 08:00 177 6 gusting 14 24.0
2020-Jul-11 07:54 168 6 gusting 14 24.0
2020-Jul-11 07:48 178 6 gusting 12 23.9
2020-Jul-11 07:42 175 6 gusting 13 23.9
2020-Jul-11 07:36 151 4 gusting 12 23.9
2020-Jul-11 07:30 159 5 gusting 11 23.9
2020-Jul-11 07:24 166 4 gusting 9 23.9
2020-Jul-11 07:18 166 4 gusting 13 24.0
2020-Jul-11 07:12 142 3 gusting 12 24.0
2020-Jul-11 07:06 172 3 gusting 11 24.0
2020-Jul-11 07:00 147 3 gusting 9 24.0
2020-Jul-11 06:54 180 5 gusting 15 24.0
2020-Jul-11 06:48 175 5 gusting 10 24.0
2020-Jul-11 06:42 161 6 gusting 11 24.0
2020-Jul-11 06:36 173 7 gusting 14 24.0
2020-Jul-11 06:30 177 7 gusting 13 24.0
2020-Jul-11 06:24 179 6 gusting 12 24.0
2020-Jul-11 06:18 153 5 gusting 13 23.9
2020-Jul-11 06:12 166 6 gusting 12 24.0
2020-Jul-11 06:06 180 5 gusting 11 24.0
2020-Jul-11 06:00 169 5 gusting 13 24.1
2020-Jul-11 05:54 167 3 gusting 9 24.1
2020-Jul-11 05:48 166 4 gusting 9 24.1
2020-Jul-11 05:42 176 5 gusting 10 24.2
2020-Jul-11 05:36 176 5 gusting 10 24.2
2020-Jul-11 05:30 170 3 gusting 9 24.3
2020-Jul-11 05:24 177 4 gusting 9 24.3
2020-Jul-11 05:18 172 3 gusting 9 24.4
2020-Jul-11 05:12 170 3 gusting 7 24.4
2020-Jul-11 05:06 178 5 gusting 9 24.5
2020-Jul-11 05:00 175 5 gusting 10 24.8
2020-Jul-11 04:54 180 4 gusting 9 24.9
2020-Jul-11 04:48 178 5 gusting 10 25.0
2020-Jul-11 04:42 186 5 gusting 8 25.0
2020-Jul-11 04:36 179 5 gusting 8 25.0
2020-Jul-11 04:30 184 6 gusting 10 25.2
2020-Jul-11 04:24 185 8 gusting 12 25.4
2020-Jul-11 04:18 183 9 gusting 15 25.2
2020-Jul-11 04:12 178 5 gusting 10 24.9
2020-Jul-11 04:06 180 5 gusting 9 24.9
2020-Jul-11 04:00 176 5 gusting 11 24.8
2020-Jul-11 03:54 177 4 gusting 8 24.7
2020-Jul-11 03:48 180 5 gusting 8 24.8
2020-Jul-11 03:42 182 6 gusting 9 24.8
2020-Jul-11 03:36 179 4 gusting 8 24.9
2020-Jul-11 03:30 183 6 gusting 11 25.0
2020-Jul-11 03:24 192 6 gusting 10 25.1
2020-Jul-11 03:18 195 7 gusting 11 25.1
2020-Jul-11 03:12 196 7 gusting 11 25.0
2020-Jul-11 03:06 193 6 gusting 10 25.1
2020-Jul-11 03:00 194 7 gusting 11 25.1
2020-Jul-11 02:54 194 7 gusting 10 25.1
2020-Jul-11 02:48 192 7 gusting 12 25.2
2020-Jul-11 02:42 193 7 gusting 12 25.3
2020-Jul-11 02:36 193 7 gusting 12 25.5
2020-Jul-11 02:30 196 9 gusting 13 25.7
2020-Jul-11 02:24 194 10 gusting 15 25.7
2020-Jul-11 02:18 195 10 gusting 17 25.7
2020-Jul-11 02:12 194 10 gusting 16 25.8
2020-Jul-11 02:06 194 10 gusting 16 25.7
2020-Jul-11 02:00 196 11 gusting 18 25.8
2020-Jul-11 01:54 194 11 gusting 16 25.6
2020-Jul-11 01:48 194 10 gusting 15 25.5
2020-Jul-11 01:42 194 10 gusting 15 25.6
2020-Jul-11 01:36 195 11 gusting 16 25.6
2020-Jul-11 01:30 194 11 gusting 19 25.6
2020-Jul-11 01:24 193 10 gusting 16 25.6
2020-Jul-11 01:18 195 10 gusting 17 25.6
2020-Jul-11 01:12 200 9 gusting 15 25.6
2020-Jul-11 01:06 195 9 gusting 15 25.5
2020-Jul-11 01:00 201 9 gusting 16 25.3
2020-Jul-11 00:54 201 9 gusting 16 25.1
2020-Jul-11 00:48 197 9 gusting 15 24.9
2020-Jul-11 00:42 202 7 gusting 14 24.7
2020-Jul-11 00:36 208 7 gusting 14 24.6
2020-Jul-11 00:30 218 7 gusting 15 24.7
2020-Jul-11 00:24 219 7 gusting 16 24.5
2020-Jul-11 00:18 219 7 gusting 13 24.5
2020-Jul-11 00:12 223 7 gusting 14 24.4
2020-Jul-11 00:06 224 7 gusting 22 24.3
2020-Jul-11 00:00 242 7 gusting 20 24.2
2020-Jul-10 23:54 225 8 gusting 19 23.9
2020-Jul-10 23:48 229 7 gusting 17 23.9
2020-Jul-10 23:42 232 7 gusting 18 23.9
2020-Jul-10 23:36 242 7 gusting 17 23.9
2020-Jul-10 23:30 234 7 gusting 19 23.9
2020-Jul-10 23:24 220 11 gusting 29 24.2
2020-Jul-10 23:18 217 10 gusting 22 24.6
2020-Jul-10 23:12 214 10 gusting 23 24.6
2020-Jul-10 23:06 210 9 gusting 17 24.4
2020-Jul-10 23:00 212 8 gusting 16 24.4
2020-Jul-10 22:54 216 9 gusting 17 24.1
2020-Jul-10 22:48 219 7 gusting 16 24.0
2020-Jul-10 22:42 232 7 gusting 18 23.9
2020-Jul-10 22:36 222 8 gusting 17 23.9
2020-Jul-10 22:30 234 7 gusting 18 23.7
2020-Jul-10 22:24 223 8 gusting 18 23.6
2020-Jul-10 22:18 235 8 gusting 17 23.7
2020-Jul-10 22:12 242 7 gusting 17 23.9
2020-Jul-10 22:06 233 7 gusting 18 24.1
2020-Jul-10 22:00 228 7 gusting 16 24.7
2020-Jul-10 21:54 221 7 gusting 17 24.9
2020-Jul-10 21:48 216 8 gusting 18 25.0
2020-Jul-10 21:42 220 7 gusting 15 25.1
2020-Jul-10 21:36 229 8 gusting 17 25.1
2020-Jul-10 21:30 256 7 gusting 15 25.0
2020-Jul-10 21:24 251 8 gusting 17 24.8
2020-Jul-10 21:18 269 10 gusting 19 24.7
2020-Jul-10 21:12 263 8 gusting 17 24.8
2020-Jul-10 21:06 267 11 gusting 22 24.9
2020-Jul-10 21:00 272 9 gusting 20 25.1
2020-Jul-10 20:54 269 8 gusting 14 25.3
2020-Jul-10 20:48 259 8 gusting 15 25.4
2020-Jul-10 20:42 272 10 gusting 18 25.4
2020-Jul-10 20:36 267 9 gusting 17 25.4
2020-Jul-10 20:30 266 8 gusting 14 25.4
2020-Jul-10 20:24 269 9 gusting 16 25.2
2020-Jul-10 20:18 272 9 gusting 16 25.2
2020-Jul-10 20:12 267 8 gusting 13 25.0
2020-Jul-10 20:06 275 10 gusting 13 24.9
2020-Jul-10 20:00 273 9 gusting 15 24.9
2020-Jul-10 19:54 269 9 gusting 16 24.8
2020-Jul-10 19:48 271 9 gusting 14 24.4
2020-Jul-10 19:42 276 8 gusting 13 24.1
2020-Jul-10 19:36 278 8 gusting 12 24.1
2020-Jul-10 19:30 282 7 gusting 11 23.9
2020-Jul-10 19:24 280 6 gusting 9 23.7
2020-Jul-10 19:18 297 5 gusting 8 23.6
2020-Jul-10 19:12 298 5 gusting 8 23.6
2020-Jul-10 19:06 311 5 gusting 6 23.6
2020-Jul-10 19:00 317 3 gusting 5 23.5
2020-Jul-10 18:54 316 3 gusting 6 23.5
2020-Jul-10 18:48 348 1 gusting 4 23.9
2020-Jul-10 18:42 104 1 gusting 4 23.7
2020-Jul-10 18:36 075 1 gusting 4 23.7
2020-Jul-10 18:30 086 2 gusting 6 23.7
2020-Jul-10 18:24 088 2 gusting 6 23.6
2020-Jul-10 18:18 082 2 gusting 7 23.4
2020-Jul-10 18:12 092 3 gusting 7 23.3
2020-Jul-10 18:06 083 3 gusting 8 23.3
2020-Jul-10 18:00 088 4 gusting 9 23.2
2020-Jul-10 17:54 096 5 gusting 14 23.2
2020-Jul-10 17:48 083 5 gusting 11 23.2
2020-Jul-10 17:42 083 5 gusting 12 23.2
2020-Jul-10 17:36 087 6 gusting 12 23.2
2020-Jul-10 17:30 081 8 gusting 14 23.2
2020-Jul-10 17:24 085 7 gusting 15 23.2
2020-Jul-10 17:18 082 8 gusting 15 23.2
2020-Jul-10 17:12 083 9 gusting 20 23.2
2020-Jul-10 17:06 081 9 gusting 19 23.2
2020-Jul-10 17:00 079 9 gusting 20 23.2
2020-Jul-10 16:54 082 8 gusting 16 23.2
2020-Jul-10 16:48 083 10 gusting 23 23.2
2020-Jul-10 16:42 084 9 gusting 18 23.3
2020-Jul-10 16:36 082 9 gusting 19 23.3
2020-Jul-10 16:30 082 10 gusting 19 23.4
2020-Jul-10 16:24 081 9 gusting 22 23.5
2020-Jul-10 16:18 081 9 gusting 21 23.5
2020-Jul-10 16:12 080 10 gusting 22 23.6
2020-Jul-10 16:06 080 10 gusting 20 24.1
2020-Jul-10 16:00 083 11 gusting 23 24.3
2020-Jul-10 15:54 082 10 gusting 20 24.4
2020-Jul-10 15:48 081 9 gusting 20 24.3
2020-Jul-10 15:42 077 8 gusting 21 24.5
2020-Jul-10 15:36 079 9 gusting 23 24.5
2020-Jul-10 15:30 085 7 gusting 20 24.5
2020-Jul-10 15:24 082 6 gusting 17 24.6
2020-Jul-10 15:18 082 7 gusting 17 24.7
2020-Jul-10 15:12 085 6 gusting 17 24.7
2020-Jul-10 15:06 089 6 gusting 15 24.7
2020-Jul-10 15:00 087 6 gusting 19 24.4
2020-Jul-10 14:54 089 6 gusting 16 24.3
2020-Jul-10 14:48 083 6 gusting 16 24.2
2020-Jul-10 14:42 082 6 gusting 21 24.1
2020-Jul-10 14:36 087 7 gusting 18 24.0
2020-Jul-10 14:30 079 6 gusting 18 23.7
2020-Jul-10 14:24 095 5 gusting 12 23.3
2020-Jul-10 14:18 096 6 gusting 15 23.1
2020-Jul-10 14:12 098 6 gusting 14 23.2
2020-Jul-10 14:06 125 5 gusting 15 23.2
2020-Jul-10 14:00 093 6 gusting 17 22.8
2020-Jul-10 13:54 099 5 gusting 14 22.5
2020-Jul-10 13:48 123 5 gusting 15 22.4
2020-Jul-10 13:42 114 5 gusting 16 22.3
2020-Jul-10 13:36 100 6 gusting 21 22.3
2020-Jul-10 13:30 099 7 gusting 19 22.3
2020-Jul-10 13:24 099 8 gusting 22 22.4
2020-Jul-10 13:18 084 8 gusting 23 22.8
2020-Jul-10 13:12 093 8 gusting 21 22.7
2020-Jul-10 13:06 114 6 gusting 21 22.5
2020-Jul-10 13:00 062 5 gusting 15 22.4
2020-Jul-10 12:54 116 7 gusting 20 22.4
2020-Jul-10 12:48 099 7 gusting 18 22.8
2020-Jul-10 12:42 102 6 gusting 18 22.7
2020-Jul-10 12:36 110 6 gusting 17 22.7
2020-Jul-10 12:30 116 6 gusting 17 22.8
2020-Jul-10 12:24 104 7 gusting 18 22.6
2020-Jul-10 12:18 090 6 gusting 16 23.0
2020-Jul-10 12:12 093 7 gusting 20 22.7
2020-Jul-10 12:06 106 6 gusting 14 22.9
2020-Jul-10 12:00 103 5 gusting 14 23.1
2020-Jul-10 11:54 112 4 gusting 12 23.2
2020-Jul-10 11:48 122 3 gusting 11 23.0
2020-Jul-10 11:42 081 6 gusting 19 22.9
2020-Jul-10 11:36 094 6 gusting 21 23.1
2020-Jul-10 11:30 051 5 gusting 17 23.4
2020-Jul-10 11:24 087 7 gusting 17 23.2
2020-Jul-10 11:18 083 6 gusting 15 22.9
2020-Jul-10 11:12 100 7 gusting 18 23.6
2020-Jul-10 11:06 129 3 gusting 10 23.5
2020-Jul-10 11:00 095 3 gusting 10 23.4